CW2654 Weather Reports


time (UTC)temp
C
wind
direction
speed
KPH
gust
KPH
rain 1hr
cm
rain 24hr
cm
rain mn
cm
humidity
%
barometer
mb
20260506224556 16 0 0.0 4.8 0.00 0.00 0.00 79 1020.6
20260506223055 16 345 1.6 6.4 0.00 0.00 0.00 77 1020.7
20260506221559 16 0 1.6 9.7 0.00 0.00 0.00 77 1020.8
20260506220059 17 273 0.0 6.4 0.00 0.00 0.00 78 1020.8
20260506214600 17 0 0.0 6.4 0.00 0.00 0.00 79 1020.7
20260506213056 16 0 0.0 4.8 0.00 0.00 0.00 83 1021.0
20260506211607 16 344 0.0 8.0 0.00 0.00 0.00 81 1021.3
20260506210055 17 0 0.0 9.7 0.00 0.00 0.00 81 1021.2
20260506204556 17 259 0.0 11.3 0.00 0.00 0.00 78 1021.0
20260506203055 17 0 1.6 8.0 0.00 0.00 0.00 80 1021.0
20260506201554 16 0 1.6 6.4 0.00 0.00 0.00 84 1021.1
20260506200051 15 317 1.6 6.4 0.00 0.00 0.00 83 1021.4
20260506194554 15 313 1.6 6.4 0.00 0.00 0.00 84 1021.4
20260506193055 16 266 0.0 11.3 0.00 0.00 0.00 85 1021.4
20260506191552 15 0 1.6 6.4 0.00 0.00 0.00 82 1021.4
20260506190056 15 263 0.0 9.7 0.00 0.00 0.00 85 1021.3
20260506184559 15 223 1.6 9.7 0.00 0.00 0.00 85 1021.4
20260506183053 14 263 0.0 9.7 0.00 0.00 0.00 86 1021.3
20260506181553 14 0 0.0 8.0 0.00 0.00 0.00 88 1021.1
20260506180055 14 0 0.0 8.0 0.00 0.00 0.00 88 1021.2
20260506174554 13 304 0.0 4.8 0.00 0.00 0.00 89 1021.0
20260506173104 13 162 0.0 9.7 0.00 0.00 0.00 89 1021.0
20260506171602 13 258 1.6 9.7 0.00 0.00 0.00 89 1021.0
20260506170059 13 0 1.6 6.4 0.00 0.00 0.00 89 1021.0
20260506164610 13 0 0.0 6.4 0.00 0.00 0.00 91 1020.9
20260506163059 13 0 0.0 4.8 0.00 0.00 0.00 92 1020.5
20260506161555 12 0 0.0 6.4 0.00 0.00 0.00 94 1020.2
20260506160107 12 0 6.4 14.5 0.00 0.00 0.00 94 1020.2
20260506154555 11 0 0.0 3.2 0.00 0.00 0.00 94 1020.8
20260506153101 11 0 0.0 4.8 0.00 0.00 0.00 94 1021.0
20260506151550 12 0 0.0 4.8 0.00 0.00 0.00 93 1021.0
20260506150049 12 0 0.0 1.6 0.00 0.00 0.00 94 1020.7
20260506144551 12 257 0.0 3.2 0.00 0.00 0.00 94 1020.4
20260506143053 12 0 0.0 3.2 0.00 0.00 0.00 94 1020.0
20260506141606 11 267 0.0 4.8 0.00 0.00 0.00 94 1020.1
20260506140050 11 0 0.0 4.8 0.00 0.00 0.00 94 1019.9
20260506134549 11 0 0.0 6.4 0.00 0.00 0.00 94 1019.8
20260506133048 11 0 0.0 6.4 0.00 0.00 0.00 95 1019.5
20260506131555 11 0 0.0 4.8 0.00 0.00 0.00 95 1019.6
20260506130051 11 0 0.0 9.7 0.00 0.00 0.00 95 1019.6
20260506124553 11 0 0.0 1.6 0.00 0.00 0.00 95 1019.5
20260506123051 11 0 0.0 3.2 0.00 0.00 0.00 94 1019.5
20260506121559 12 0 0.0 4.8 0.00 0.00 0.00 94 1019.5
20260506120118 12 0 0.0 4.8 0.00 0.00 0.00 95 1019.1
20260506114550 12 0 0.0 0.0 0.00 0.00 0.00 96 1019.1
20260506113059 12 0 0.0 0.0 0.00 0.00 0.00 95 1018.9
20260506111552 12 0 0.0 0.0 0.00 0.00 0.00 95 1018.6
20260506110056 12 0 0.0 0.0 0.00 0.00 0.00 95 1018.4
20260506104554 12 0 0.0 0.0 0.00 0.00 0.00 95 1018.3
20260506103055 12 0 0.0 0.0 0.00 0.00 0.00 95 1018.0
20260506101554 12 0 0.0 3.2 0.00 0.00 0.00 95 1017.9
20260506100056 12 0 0.0 1.6 0.00 0.00 0.00 95 1017.9
20260506094553 12 0 0.0 1.6 0.00 0.00 0.00 95 1018.1
20260506093055 12 0 0.0 0.0 0.00 0.00 0.00 95 1017.9
20260506091550 12 0 0.0 0.0 0.00 0.00 0.00 95 1018.0
20260506090053 12 0 0.0 0.0 0.00 0.00 0.00 94 1017.9
20260506084553 12 0 0.0 1.6 0.00 0.00 0.00 94 1017.9
20260506083055 12 0 0.0 1.6 0.00 0.00 0.00 94 1017.9
20260506081552 12 0 0.0 1.6 0.00 0.00 0.00 94 1017.8
20260506073059 12 0 0.0 1.6 0.00 0.00 0.00 94 1017.6
20260506071554 12 0 0.0 1.6 0.00 0.00 0.00 94 1017.5
20260506070114 12 0 0.0 1.6 0.00 0.00 0.00 94 1017.4
20260506061551 12 0 0.0 3.2 0.00 0.00 0.00 93 1017.1
20260506050112 12 286 0.0 1.6 0.00 0.00 0.00 93 1016.9
20260506044601 13 0 0.0 0.0 0.00 0.00 0.00 93 1016.8
20260506043052 13 0 0.0 0.0 0.00 0.00 0.00 92 1016.8
20260506041555 13 0 0.0 1.6 0.00 0.00 0.00 92 1016.6
20260506040100 13 0 0.0 0.0 0.00 0.00 0.00 91 1016.4
20260506034551 13 0 0.0 0.0 0.00 0.00 0.00 90 1016.3
20260506033049 13 0 0.0 0.0 0.00 0.00 0.00 90 1016.2
20260506031559 14 0 0.0 0.0 0.00 0.00 0.00 88 1015.9
20260506030111 14 0 0.0 0.0 0.00 0.00 0.00 87 1015.7
20260506024552 14 0 0.0 0.0 0.00 0.00 0.00 86 1015.8
20260506023056 14 0 0.0 0.0 0.00 0.00 0.00 86 1015.5
20260506021548 14 0 0.0 0.0 0.00 0.00 0.00 85 1015.6
20260506020051 14 0 0.0 3.2 0.00 0.00 0.00 84 1015.7
20260506014555 14 0 0.0 1.6 0.00 0.00 0.00 83 1015.6
20260506013051 15 0 0.0 3.2 0.00 0.00 0.00 84 1015.5
20260506011558 15 0 0.0 3.2 0.00 0.00 0.00 83 1015.5
20260506010058 15 0 0.0 1.6 0.00 0.00 0.00 83 1015.4
20260506004625 15 0 0.0 4.8 0.00 0.00 0.00 83 1015.5
20260506003051 15 0 0.0 4.8 0.00 0.00 0.00 84 1015.6
20260506001556 15 0 0.0 3.2 0.00 0.00 0.00 83 1015.6
20260506000054 15 0 0.0 3.2 0.00 0.00 0.00 83 1015.9
20260505234612 15 277 0.0 6.4 0.00 0.00 0.00 82 1016.0
20260505233048 15 0 0.0 3.2 0.00 0.00 0.00 80 1016.0
20260505231552 16 0 1.6 11.3 0.00 0.00 0.00 79 1016.0
20260505230052 16 261 1.6 8.0 0.00 0.00 0.00 82 1016.0